KLM14G EHAM-LYTV

Flight info

Callsign KLM14G
Flight time N/A
Altitude 35000
Route EDUPO Z739 MISGO DCT PODIP DCT BOMBI T104 HAREM Z74 LAMPU DCT NOMBO Y161 MAH DCT VAVOR DCT RADIZ DCT GIMIX DCT SABAD DCT NERRA DCT TAZ
Aircraft E170/M-SDE3GILORVW/S

Departure

Time N/A
Airport Amsterdam Airport Schiphol (EHAM)

Arrival

Time 2026-05-01 14:10
Airport Tivat Airport (LYTV)
Time Latitude Longitude Altitude Speed Heading
2026-05-01 12:30 49.65931 8.86387 35259 ft 467 kts 129°
2026-05-01 12:30 49.63929 8.90045 35297 ft 469 kts 129°
2026-05-01 12:31 49.59930 8.97369 35310 ft 468 kts 129°
2026-05-01 12:31 49.55963 9.04621 35308 ft 466 kts 129°
2026-05-01 12:32 49.51982 9.11877 35306 ft 465 kts 128°
2026-05-01 12:32 49.46012 9.22723 35308 ft 467 kts 128°
2026-05-01 12:33 49.42030 9.29931 35309 ft 467 kts 128°
2026-05-01 12:33 49.38035 9.37146 35308 ft 466 kts 128°
2026-05-01 12:34 49.34021 9.44372 35315 ft 466 kts 128°
2026-05-01 12:34 49.30021 9.51554 35322 ft 466 kts 128°
2026-05-01 12:35 49.26012 9.58734 35328 ft 466 kts 128°
2026-05-01 12:35 49.22005 9.65889 35334 ft 467 kts 129°
2026-05-01 12:36 49.17990 9.73038 35337 ft 467 kts 129°
2026-05-01 12:36 49.13955 9.80205 35338 ft 466 kts 129°
2026-05-01 12:37 49.11952 9.83755 35455 ft 466 kts 129°
2026-05-01 12:37 49.09945 9.87309 35624 ft 466 kts 129°
2026-05-01 12:37 49.07913 9.90900 35791 ft 466 kts 129°
2026-05-01 12:37 49.05903 9.94447 35956 ft 466 kts 129°
2026-05-01 12:38 49.03892 9.97993 36122 ft 466 kts 129°
2026-05-01 12:38 49.01891 10.01516 36286 ft 465 kts 128°
2026-05-01 12:38 48.99872 10.05065 36449 ft 465 kts 128°
2026-05-01 12:38 48.97862 10.08595 36613 ft 464 kts 128°
2026-05-01 12:39 48.95837 10.12145 36778 ft 464 kts 128°
2026-05-01 12:39 48.93842 10.15639 36943 ft 465 kts 128°
2026-05-01 12:39 48.91817 10.19180 37109 ft 466 kts 128°
2026-05-01 12:39 48.89782 10.22734 37274 ft 467 kts 129°
2026-05-01 12:40 48.85711 10.29828 37292 ft 469 kts 128°
2026-05-01 12:40 48.81633 10.36917 37295 ft 468 kts 128°
2026-05-01 12:41 48.77541 10.44010 37426 ft 472 kts 128°
2026-05-01 12:41 48.73482 10.51027 37366 ft 464 kts 128°
2026-05-01 12:42 48.69387 10.58088 37354 ft 471 kts 128°
2026-05-01 12:42 48.65295 10.65123 37362 ft 469 kts 129°
2026-05-01 12:43 48.61195 10.72155 37376 ft 469 kts 129°
2026-05-01 12:43 48.57089 10.79179 37380 ft 469 kts 129°
2026-05-01 12:44 48.52965 10.86213 37378 ft 469 kts 128°
2026-05-01 12:45 48.44740 11.00189 37381 ft 469 kts 128°
2026-05-01 12:45 48.40628 11.07148 37380 ft 469 kts 128°
2026-05-01 12:46 48.36486 11.14138 37377 ft 469 kts 128°
2026-05-01 12:46 48.32368 11.21071 37369 ft 469 kts 128°
2026-05-01 12:47 48.28223 11.28030 37364 ft 469 kts 128°
2026-05-01 12:47 48.24639 11.35476 37380 ft 462 kts 115°
2026-05-01 12:48 48.21598 11.43478 37366 ft 463 kts 116°
2026-05-01 12:48 48.18546 11.51373 37366 ft 462 kts 116°
2026-05-01 12:49 48.15479 11.59277 37364 ft 461 kts 116°
2026-05-01 12:49 48.12410 11.67159 37365 ft 462 kts 116°
2026-05-01 12:50 48.09325 11.75062 37360 ft 462 kts 116°
2026-05-01 12:50 48.06240 11.82940 37353 ft 462 kts 116°
2026-05-01 12:51 48.03160 11.90782 37350 ft 460 kts 116°
2026-05-01 12:52 47.98506 12.02590 37347 ft 461 kts 116°
2026-05-01 12:52 47.93691 12.14235 37349 ft 466 kts 125°
2026-05-01 12:53 47.86829 12.23707 37353 ft 472 kts 135°
2026-05-01 12:54 47.82059 12.29684 37353 ft 472 kts 135°
2026-05-01 12:54 47.74890 12.38631 37370 ft 472 kts 135°
2026-05-01 12:55 47.67685 12.47588 37369 ft 472 kts 135°
2026-05-01 12:56 47.62903 12.53513 37371 ft 472 kts 135°
2026-05-01 12:56 47.57864 12.59069 37096 ft 472 kts 139°
2026-05-01 12:56 47.55348 12.61804 37363 ft 472 kts 139°
2026-05-01 12:57 47.52803 12.64575 37383 ft 475 kts 139°
2026-05-01 12:57 47.45187 12.72849 37393 ft 478 kts 139°
2026-05-01 12:58 47.40088 12.78373 37384 ft 476 kts 139°
2026-05-01 12:59 47.32459 12.86612 37384 ft 477 kts 139°
2026-05-01 12:59 47.24823 12.94827 37391 ft 476 kts 139°
2026-05-01 13:00 47.17199 13.03001 37389 ft 476 kts 139°
2026-05-01 13:01 47.09536 13.11187 37373 ft 475 kts 139°
2026-05-01 13:02 47.01898 13.19315 37351 ft 475 kts 139°
2026-05-01 13:07 46.45643 13.78830 37359 ft 479 kts 137°
2026-05-01 13:08 46.40596 13.84451 37354 ft 481 kts 136°
2026-05-01 13:08 46.35569 13.90034 37357 ft 479 kts 136°
2026-05-01 13:09 46.30537 13.95611 37363 ft 478 kts 136°
2026-05-01 13:09 46.25516 14.01162 37364 ft 480 kts 136°
2026-05-01 13:10 46.20466 14.06731 37370 ft 478 kts 136°
2026-05-01 13:10 46.15412 14.12293 37379 ft 479 kts 136°
2026-05-01 13:11 46.10342 14.17859 37372 ft 481 kts 136°
2026-05-01 13:11 46.05297 14.23383 37373 ft 480 kts 136°
2026-05-01 13:12 46.00223 14.28927 37376 ft 480 kts 136°
2026-05-01 13:12 45.95154 14.34453 37368 ft 480 kts 136°
2026-05-01 13:13 45.90115 14.39931 37366 ft 480 kts 136°
2026-05-01 13:13 45.85029 14.45449 37350 ft 481 kts 136°
2026-05-01 13:14 45.79946 14.50950 37344 ft 479 kts 136°
2026-05-01 13:14 45.74920 14.56378 37339 ft 478 kts 135°
2026-05-01 13:15 45.69850 14.61839 37336 ft 479 kts 136°
2026-05-01 13:15 45.64755 14.67316 37347 ft 481 kts 136°
2026-05-01 13:16 45.59688 14.72748 37339 ft 477 kts 136°
2026-05-01 13:16 45.54617 14.78175 37349 ft 481 kts 136°
2026-05-01 13:17 45.44454 14.89089 37328 ft 478 kts 135°
2026-05-01 13:18 45.36938 14.97382 37343 ft 477 kts 135°
2026-05-01 13:18 45.31943 15.02873 37312 ft 480 kts 135°
2026-05-01 13:19 45.26907 15.08397 37323 ft 480 kts 135°
2026-05-01 13:20 45.19391 15.16616 37299 ft 479 kts 135°
2026-05-01 13:20 45.14345 15.22118 37325 ft 481 kts 135°
2026-05-01 13:21 45.06811 15.30311 37333 ft 478 kts 135°
2026-05-01 13:21 45.01780 15.35767 37332 ft 481 kts 135°
2026-05-01 13:22 44.96704 15.41258 37338 ft 482 kts 135°
2026-05-01 13:22 44.91690 15.46668 37262 ft 471 kts 135°
2026-05-01 13:23 44.86759 15.51979 37260 ft 466 kts 135°
2026-05-01 13:23 44.81823 15.57286 37261 ft 468 kts 136°
2026-05-01 13:24 44.76908 15.62554 37271 ft 465 kts 135°
2026-05-01 13:25 44.69548 15.70424 37258 ft 468 kts 136°
2026-05-01 13:25 44.64603 15.75698 37278 ft 470 kts 136°
2026-05-01 13:26 44.59671 15.80946 37248 ft 468 kts 137°
2026-05-01 13:26 44.54725 15.86196 37253 ft 470 kts 137°
2026-05-01 13:27 44.49772 15.91444 37268 ft 469 kts 137°
2026-05-01 13:27 44.42348 15.99288 37239 ft 469 kts 137°
2026-05-01 13:28 44.34888 16.07144 37245 ft 469 kts 137°
2026-05-01 13:29 44.24896 16.17625 37225 ft 472 kts 137°
2026-05-01 13:31 44.09879 16.33293 37233 ft 475 kts 138°
2026-05-01 13:32 43.97291 16.46348 37228 ft 472 kts 139°
2026-05-01 13:33 43.84679 16.59359 37223 ft 477 kts 139°
2026-05-01 13:34 43.74556 16.69750 37231 ft 477 kts 140°
2026-05-01 13:35 43.66909 16.77570 37227 ft 478 kts 140°
2026-05-01 13:36 43.59259 16.85368 37229 ft 478 kts 140°
2026-05-01 13:36 43.51591 16.93158 37223 ft 479 kts 140°
2026-05-01 13:37 43.46466 16.98351 37218 ft 479 kts 141°
2026-05-01 13:37 43.41384 17.03490 37204 ft 479 kts 141°
2026-05-01 13:38 43.33678 17.11261 37211 ft 480 kts 141°
2026-05-01 13:39 43.28533 17.16437 37210 ft 481 kts 141°
2026-05-01 13:39 43.23391 17.21597 37203 ft 481 kts 141°
2026-05-01 13:40 43.18267 17.26728 37210 ft 481 kts 141°
2026-05-01 13:40 43.13103 17.31888 37203 ft 480 kts 141°
2026-05-01 13:41 43.07958 17.37019 37189 ft 481 kts 142°
2026-05-01 13:41 43.02797 17.42155 37200 ft 481 kts 142°
2026-05-01 13:42 42.97639 17.47277 37193 ft 482 kts 142°
2026-05-01 13:42 42.92508 17.52407 37187 ft 482 kts 138°
2026-05-01 13:43 42.88228 17.58820 37185 ft 478 kts 120°
2026-05-01 13:43 42.84803 17.66051 37181 ft 477 kts 121°
2026-05-01 13:44 42.81319 17.73210 37177 ft 478 kts 121°
2026-05-01 13:44 42.77804 17.80399 37169 ft 479 kts 122°
2026-05-01 13:45 42.74298 17.87550 36867 ft 479 kts 121°
2026-05-01 13:45 42.72531 17.91147 36359 ft 476 kts 122°
2026-05-01 13:45 42.70792 17.94683 35831 ft 470 kts 121°
2026-05-01 13:45 42.69092 17.98137 35309 ft 466 kts 122°
2026-05-01 13:46 42.67362 18.01647 34689 ft 468 kts 121°
2026-05-01 13:46 42.65639 18.05139 34057 ft 467 kts 121°
2026-05-01 13:46 42.63919 18.08619 33456 ft 466 kts 121°
2026-05-01 13:46 42.62227 18.12040 32914 ft 465 kts 121°
2026-05-01 13:47 42.60513 18.15502 32378 ft 463 kts 121°
2026-05-01 13:47 42.58805 18.18945 31856 ft 459 kts 121°
2026-05-01 13:47 42.57124 18.22334 31329 ft 453 kts 121°
2026-05-01 13:47 42.55474 18.25652 30796 ft 446 kts 121°
2026-05-01 13:48 42.53830 18.28958 30150 ft 438 kts 121°
2026-05-01 13:48 42.52239 18.32153 29449 ft 432 kts 121°
2026-05-01 13:48 42.50640 18.35361 28720 ft 426 kts 121°
2026-05-01 13:48 42.49074 18.38501 27994 ft 422 kts 121°
2026-05-01 13:49 42.47531 18.41588 27274 ft 418 kts 121°
2026-05-01 13:49 42.45982 18.44686 26545 ft 414 kts 121°
2026-05-01 13:49 42.44471 18.47704 25826 ft 409 kts 121°
2026-05-01 13:49 42.42961 18.50718 25064 ft 404 kts 121°
2026-05-01 13:50 42.41467 18.53696 24292 ft 399 kts 121°
2026-05-01 13:50 42.39988 18.56642 23491 ft 394 kts 121°
2026-05-01 13:50 42.38540 18.59523 22686 ft 389 kts 121°
2026-05-01 13:50 42.37111 18.62363 21891 ft 384 kts 121°
2026-05-01 13:51 42.35703 18.65161 21144 ft 378 kts 121°
2026-05-01 13:51 42.34305 18.67933 20546 ft 370 kts 122°
2026-05-01 13:51 42.32908 18.70705 19861 ft 385 kts 122°
2026-05-01 13:51 42.31440 18.73614 19882 ft 402 kts 122°
2026-05-01 13:52 42.29993 18.76471 19923 ft 376 kts 122°
2026-05-01 13:52 42.28627 18.79170 19833 ft 354 kts 121°
2026-05-01 13:52 42.27284 18.81715 19079 ft 353 kts 123°
2026-05-01 13:52 42.25906 18.84267 18088 ft 357 kts 123°
2026-05-01 13:53 42.24510 18.86851 17158 ft 359 kts 123°
2026-05-01 13:53 42.21749 18.91952 15720 ft 350 kts 123°
2026-05-01 13:53 42.20395 18.94450 15020 ft 345 kts 123°
2026-05-01 13:54 42.19051 18.96926 14285 ft 340 kts 123°
2026-05-01 13:54 42.17739 18.99346 13576 ft 337 kts 123°
2026-05-01 13:54 42.16437 19.01742 12927 ft 333 kts 123°
2026-05-01 13:54 42.15150 19.04110 12380 ft 325 kts 123°
2026-05-01 13:55 42.13935 19.06340 12382 ft 299 kts 123°
2026-05-01 13:55 42.12792 19.08438 12318 ft 278 kts 123°
2026-05-01 13:55 42.11727 19.10394 12107 ft 267 kts 123°
2026-05-01 13:55 42.10456 19.12016 11666 ft 270 kts 151°
2026-05-01 13:56 42.08791 19.12839 11297 ft 268 kts 159°
2026-05-01 13:56 42.07097 19.13534 10943 ft 264 kts 166°
2026-05-01 13:56 42.05355 19.13411 10568 ft 267 kts 191°
2026-05-01 13:56 42.03633 19.12844 10178 ft 265 kts 192°
2026-05-01 13:57 42.01928 19.12258 9783 ft 263 kts 192°
2026-05-01 13:57 42.00250 19.11670 9399 ft 261 kts 193°
2026-05-01 13:57 41.98582 19.11081 8976 ft 260 kts 193°
2026-05-01 13:57 41.96915 19.10489 8564 ft 259 kts 193°
2026-05-01 13:58 41.95335 19.09686 8309 ft 252 kts 218°
2026-05-01 13:58 41.94400 19.07960 8100 ft 241 kts 258°
2026-05-01 13:58 41.94458 19.05917 7806 ft 228 kts 295°
2026-05-01 13:58 41.95119 19.04129 7511 ft 222 kts 304°
2026-05-01 13:59 41.95903 19.02465 7188 ft 220 kts 308°
2026-05-01 13:59 41.96746 19.00877 6858 ft 218 kts 310°
2026-05-01 13:59 41.97612 18.99346 6535 ft 217 kts 311°
2026-05-01 13:59 41.98503 18.97825 6210 ft 216 kts 312°
2026-05-01 14:00 41.99388 18.96346 5864 ft 216 kts 312°
2026-05-01 14:00 42.00300 18.94847 5522 ft 215 kts 316°
2026-05-01 14:00 42.01477 18.93856 5162 ft 210 kts 340°
2026-05-01 14:00 42.02777 18.93158 4831 ft 210 kts 341°
2026-05-01 14:01 42.04069 18.92469 4503 ft 210 kts 340°
2026-05-01 14:01 42.05348 18.91791 4177 ft 210 kts 340°
2026-05-01 14:01 42.06650 18.91102 3997 ft 206 kts 341°
2026-05-01 14:01 42.07908 18.90439 3982 ft 206 kts 341°
2026-05-01 14:02 42.09199 18.89763 3994 ft 208 kts 341°
2026-05-01 14:02 42.10481 18.89094 3992 ft 209 kts 341°
2026-05-01 14:02 42.11789 18.88464 3997 ft 209 kts 340°
2026-05-01 14:02 42.13093 18.87764 4005 ft 209 kts 341°
2026-05-01 14:03 42.14379 18.87089 3997 ft 205 kts 341°
2026-05-01 14:03 42.15598 18.86455 4000 ft 188 kts 341°
2026-05-01 14:03 42.16747 18.85863 3988 ft 185 kts 342°
2026-05-01 14:03 42.17887 18.85278 3937 ft 179 kts 342°
2026-05-01 14:04 42.18995 18.84710 3684 ft 180 kts 343°
2026-05-01 14:04 42.20056 18.84155 3569 ft 160 kts 342°
2026-05-01 14:04 42.21024 18.83627 3377 ft 153 kts 341°
2026-05-01 14:04 42.21630 18.83286 3331 ft 144 kts 341°
2026-05-01 14:05 42.22796 18.82638 3101 ft 141 kts 342°
2026-05-01 14:05 42.23647 18.82159 2914 ft 139 kts 340°
2026-05-01 14:05 42.24497 18.81665 2732 ft 137 kts 340°
2026-05-01 14:05 42.25329 18.81191 2624 ft 136 kts 340°
2026-05-01 14:06 42.26177 18.80713 2509 ft 139 kts 341°
2026-05-01 14:06 42.27039 18.80294 2440 ft 137 kts 344°
2026-05-01 14:06 42.27891 18.79898 2435 ft 135 kts 343°
2026-05-01 14:06 42.28740 18.79499 2393 ft 140 kts 346°
2026-05-01 14:07 42.29637 18.79116 2368 ft 141 kts 346°
2026-05-01 14:07 42.30547 18.78730 2340 ft 141 kts 346°
2026-05-01 14:07 42.31431 18.78365 2246 ft 139 kts 347°
2026-05-01 14:08 42.33186 18.77630 1844 ft 135 kts 345°
2026-05-01 14:08 42.34052 18.77266 1606 ft 136 kts 346°
2026-05-01 14:08 42.34920 18.76944 1364 ft 137 kts 345°
2026-05-01 14:08 42.35791 18.76606 1124 ft 135 kts 341°
2026-05-01 14:09 42.36628 18.76132 900 ft 136 kts 333°
2026-05-01 14:09 42.37423 18.75566 664 ft 136 kts 329°
2026-05-01 14:09 42.38171 18.74923 467 ft 135 kts 324°
2026-05-01 14:09 42.38880 18.74179 283 ft 133 kts 318°
2026-05-01 14:10 42.39531 18.73418 83 ft 128 kts 316°
2026-05-01 14:10 42.40136 18.72709 22 ft 98 kts 322°
2026-05-01 14:10 42.40487 18.72299 25 ft 57 kts 319°
2026-05-01 14:10 42.40757 18.71981 25 ft 38 kts 319°
2026-05-01 14:11 42.40906 18.71807 21 ft 17 kts 326°
2026-05-01 14:11 42.41017 18.71851 22 ft 5 kts 353°
2026-05-01 14:11 42.41045 18.71871 23 ft 4 kts 57°
2026-05-01 14:12 42.41040 18.71897 23 ft 3 kts 163°
2026-05-01 14:12 42.41031 18.71896 23 ft 0 kts 170°